Weather History for Wenatchee, WA

Change the Weather History Date:

Wednesday, November 21, 2012

  Actual Average Record
Temperature  
Mean Temperature 39 °F 32 °F  
Max Temperature 45 °F 38 °F 56 °F (1965)
Min Temperature 32 °F 26 °F 7 °F (1985)
Degree Days  
Heating Degree Days 26 33  
Month to date heating degree days 545 613  
Since 1 July heating degree days 1344 1569  
Cooling Degree Days 0 0  
Month to date cooling degree days 0 0  
Year to date cooling degree days 294 249  
Moisture  
Dew Point 31 °F    
Average Humidity 70    
Maximum Humidity 93    
Minimum Humidity 38    
Precipitation  
Precipitation 0.33 in 0.08 in 0.41 in (2014)
Month to date precipitation 2.83 1.48  
Year to date precipitation 19.93 13.82  
Snow  
Snow T in 0.40 in - ()
Month to date snowfall 7.2 4.0  
Since 1 July snowfall 7.2 4.1  
Since 1 September snowfall 7.2 4.1  
Snow Depth 0.00 in    
Sea Level Pressure  
Sea Level Pressure 29.80 in    
Wind  
Wind Speed 6 mph (WNW)    
Max Wind Speed 22 mph    
Max Gust Speed 30 mph    
Visibility 8 miles    
Events Fog    
T = Trace of Precipitation, MM = Missing Value Source: NWS Daily Summary

Daily Weather History Graph

Daily Weather History Graph

Search for Another Location

Airport:

Trip Planner

Search our weather history database for the weather conditions in past years. The results will help you decide how hot, cold, wet, or windy it might be!

Date:

Astronomy

Nov. 21, 2012 Rise Set
Actual Time 7:14 AM PST 4:18 PM PST
Civil Twilight 6:40 AM PST 4:52 PM PST
Nautical Twilight 6:02 AM PST 5:30 PM PST
Astronomical Twilight 5:26 AM PST 6:06 PM PST
Moon 1:00 PM PST 12:13 AM PST
Length of Visible Light 10h 11m
Length of Day
9h 03m
Waxing Gibbous, 63% of the Moon is Illuminated
Nov 21
Waxing Gibbous
Nov 28
Full
Dec 6
Last Quarter
Dec 13
New
Dec 19
First Quarter

Hourly Weather History & Observations

Time (PST) Temp. Windchill Dew Point Humidity Pressure Visibility Wind Dir Wind Speed Gust Speed Precip Events Conditions
12:55 AM 39.9 °F 37.8 °F 36.0 °F 86% 29.63 in 10.0 mi ESE 3.5 mph - N/A   Overcast
1:55 AM 37.0 °F 34.5 °F 34.0 °F 89% 29.60 in 9.0 mi South 3.5 mph - N/A   Clear
2:55 AM 37.0 °F 34.5 °F 34.0 °F 89% 29.60 in 6.0 mi North 3.5 mph - N/A   Mostly Cloudy
4:55 AM 37.9 °F 34.4 °F 35.1 °F 89% 29.62 in 10.0 mi WSW 4.6 mph - N/A   Overcast
5:55 AM 37.0 °F 31.0 °F 34.0 °F 89% 29.63 in 6.0 mi WNW 8.1 mph - 0.00 in   Partly Cloudy
6:04 AM 37.4 °F 30.3 °F 33.8 °F 87% 29.61 in 1.8 mi NW 10.4 mph 18.4 mph N/A   Mostly Cloudy
6:11 AM 37.4 °F 34.9 °F 35.6 °F 93% 29.61 in 3.0 mi NE 3.5 mph - N/A   Mostly Cloudy
6:55 AM 39.0 °F - 34.0 °F 82% 29.63 in 10.0 mi Calm Calm - N/A   Clear
7:55 AM 37.0 °F 34.5 °F 34.0 °F 89% 29.67 in 10.0 mi NW 3.5 mph - N/A   Partly Cloudy
8:30 AM 37.4 °F - 33.8 °F 87% 29.68 in 0.8 mi Calm Calm - N/A   Partly Cloudy
8:37 AM 39.2 °F 35.9 °F 35.6 °F 87% 29.68 in 0.5 mi West 4.6 mph - N/A Fog Fog
8:41 AM 39.2 °F - 35.6 °F 87% 29.68 in 1.8 mi Calm Calm - N/A   Haze
8:48 AM 42.8 °F - 33.8 °F 70% 29.68 in 10.0 mi Calm Calm - N/A   Partly Cloudy
8:55 AM 43.0 °F - 35.1 °F 74% 29.71 in 10.0 mi Calm Calm - N/A   Partly Cloudy
9:55 AM 48.0 °F - 28.9 °F 48% 29.74 in 10.0 mi NW 11.5 mph - N/A   Clear
10:55 AM 50.0 °F - 25.0 °F 38% 29.78 in 10.0 mi West 18.4 mph 24.2 mph N/A   Clear
11:55 AM 50.0 °F - 25.0 °F 38% 29.80 in 10.0 mi West 21.9 mph 29.9 mph N/A   Clear
12:55 PM 50.0 °F - 27.0 °F 41% 29.82 in 10.0 mi WNW 17.3 mph 24.2 mph N/A   Clear
1:55 PM 48.0 °F - 28.0 °F 46% 29.86 in 10.0 mi West 13.8 mph - N/A   Partly Cloudy
2:55 PM 46.9 °F - 26.1 °F 44% 29.90 in 10.0 mi WSW 11.5 mph 21.9 mph N/A   Partly Cloudy
3:55 PM 46.0 °F 38.0 °F 23.0 °F 40% 29.94 in 10.0 mi WSW 21.9 mph 29.9 mph N/A   Partly Cloudy
4:55 PM 43.0 °F 39.5 °F 27.0 °F 53% 29.97 in 10.0 mi NNW 5.8 mph - N/A   Partly Cloudy
5:55 PM 41.0 °F 37.1 °F 28.0 °F 60% 30.00 in 10.0 mi NNW 5.8 mph - N/A   Clear
6:55 PM 36.0 °F 31.1 °F 28.9 °F 76% 30.03 in 10.0 mi WNW 5.8 mph - N/A   Clear
8:55 PM 39.9 °F 30.5 °F 30.9 °F 70% 30.10 in 10.0 mi NW 19.6 mph - N/A   Clear
9:55 PM 39.0 °F 30.3 °F 30.9 °F 73% 30.13 in 10.0 mi NW 16.1 mph - N/A   Clear
10:55 PM 37.9 °F 32.1 °F 30.9 °F 76% 30.18 in 10.0 mi ENE 8.1 mph - N/A   Mostly Cloudy
11:55 PM 39.0 °F - 30.9 °F 73% 30.21 in 10.0 mi Calm Calm - N/A   Scattered Clouds